| time (UTC) | temp C | wind direction | speed KPH | gust KPH | rain 1hr cm | rain 24hr cm | rain mn cm | humidity % | barometer mb |
| 20260831153333 | 23 | 86 | 1.6 | 6.4 | 0.00 | 0.00 | 0.00 | 1 | 1018.4 |
| 20260831152833 | 23 | 86 | 1.6 | 6.4 | 0.00 | 0.00 | 0.00 | 1 | 1018.5 |
| 20260831152333 | 23 | 86 | 1.6 | 6.4 | 0.00 | 0.00 | 0.00 | 1 | 1018.5 |
| 20260831151834 | 23 | 85 | 1.6 | 6.4 | 0.00 | 0.00 | 0.00 | 1 | 1018.6 |
| 20260831151333 | 23 | 86 | 1.6 | 9.7 | 0.00 | 0.00 | 0.00 | 1 | 1018.7 |
| 20260831150832 | 23 | 86 | 1.6 | 9.7 | 0.00 | 0.00 | 0.00 | 1 | 1018.7 |
| 20260831150820 | 23 | 88 | 1.6 | 9.7 | 0.00 | 0.00 | 0.00 | 1 | 1018.7 |
| 20260831145832 | 24 | 86 | 0.0 | 9.7 | 0.00 | 0.00 | 0.00 | 1 | 1018.7 |
| 20260831145555 | 23 | 88 | 0.0 | 4.8 | 0.00 | 0.00 | 0.00 | 1 | 1018.6 |
| 20260831144832 | 23 | 88 | 1.6 | 6.4 | 0.00 | 0.00 | 0.00 | 1 | 1018.4 |
| 20260831144332 | 23 | 88 | 1.6 | 6.4 | 0.00 | 0.00 | 0.00 | 1 | 1018.4 |
| 20260831143833 | 23 | 88 | 1.6 | 9.7 | 0.00 | 0.00 | 0.00 | 1 | 1018.5 |
| 20260831143333 | 23 | 88 | 3.2 | 9.7 | 0.00 | 0.00 | 0.00 | 1 | 1018.5 |
| 20260831142832 | 23 | 90 | 1.6 | 8.0 | 0.00 | 0.00 | 0.00 | 1 | 1018.6 |
| 20260831142333 | 22 | 91 | 1.6 | 8.0 | 0.00 | 0.00 | 0.00 | 1 | 1018.6 |
| 20260831141832 | 22 | 91 | 1.6 | 8.0 | 0.00 | 0.00 | 0.00 | 1 | 1018.7 |
| 20260831141332 | 23 | 88 | 3.2 | 6.4 | 0.00 | 0.00 | 0.00 | 1 | 1018.7 |
| 20260831141054 | 23 | 82 | 4.8 | 8.0 | 0.00 | 0.00 | 0.00 | 1 | 1018.6 |
| 20260831140332 | 22 | 78 | 4.8 | 8.0 | 0.00 | 0.00 | 0.00 | 1 | 1018.5 |
| 20260831135832 | 22 | 76 | 3.2 | 8.0 | 0.00 | 0.00 | 0.00 | 1 | 1018.5 |
| 20260831135332 | 22 | 61 | 4.8 | 11.3 | 0.00 | 0.00 | 0.00 | 1 | 1018.5 |
| 20260831134831 | 22 | 65 | 6.4 | 11.3 | 0.00 | 0.00 | 0.00 | 1 | 1018.5 |
| 20260831134814 | 22 | 52 | 3.2 | 11.3 | 0.00 | 0.00 | 0.00 | 1 | 1018.4 |
| 20260831133825 | 22 | 51 | 3.2 | 9.7 | 0.00 | 0.00 | 0.00 | 1 | 1018.2 |
| 20260831133324 | 22 | 51 | 1.6 | 8.0 | 0.00 | 0.00 | 0.00 | 1 | 1018.1 |
| 20260831132822 | 22 | 50 | 1.6 | 8.0 | 0.00 | 0.00 | 0.00 | 1 | 1018.4 |
| 20260831132322 | 21 | 49 | 1.6 | 6.4 | 0.00 | 0.00 | 0.00 | 1 | 1018.5 |
| 20260831131820 | 21 | 49 | 1.6 | 8.0 | 0.00 | 0.00 | 0.00 | 1 | 1018.5 |
| 20260831131320 | 21 | 49 | 4.8 | 9.7 | 0.00 | 0.00 | 0.00 | 1 | 1018.6 |
| 20260831130821 | 21 | 49 | 6.4 | 11.3 | 0.00 | 0.00 | 0.00 | 1 | 1018.5 |
| 20260831130318 | 20 | 44 | 8.0 | 11.3 | 0.00 | 0.00 | 0.00 | 1 | 1018.6 |
| 20260831125816 | 20 | 51 | 8.0 | 12.9 | 0.00 | 0.00 | 0.00 | 1 | 1018.6 |
| 20260831125314 | 20 | 55 | 6.4 | 12.9 | 0.00 | 0.00 | 0.00 | 1 | 1018.7 |
| 20260831124814 | 20 | 65 | 3.2 | 9.7 | 0.00 | 0.00 | 0.00 | 1 | 1018.6 |
| 20260831124315 | 19 | 67 | 1.6 | 6.4 | 0.00 | 0.00 | 0.00 | 1 | 1018.7 |
| 20260831123810 | 19 | 67 | 1.6 | 4.8 | 0.00 | 0.00 | 0.00 | 1 | 1018.8 |
| 20260831123311 | 18 | 67 | 0.0 | 3.2 | 0.00 | 0.00 | 0.00 | 1 | 1018.7 |
| 20260831122809 | 18 | 67 | 0.0 | 3.2 | 0.00 | 0.00 | 0.00 | 1 | 1018.6 |
| 20260831122538 | 18 | 67 | 0.0 | 0.0 | 0.00 | 0.00 | 0.00 | 1 | 1018.5 |
| 20260831121808 | 18 | 67 | 0.0 | 0.0 | 0.00 | 0.00 | 0.00 | 1 | 1018.6 |
| 20260831121302 | 18 | 67 | 0.0 | 0.0 | 0.00 | 0.00 | 0.00 | 1 | 1018.6 |
| 20260831120756 | 17 | 67 | 0.0 | 0.0 | 0.00 | 0.00 | 0.00 | 1 | 1018.7 |
| 20260831120250 | 17 | 67 | 0.0 | 0.0 | 0.00 | 0.00 | 0.00 | 1 | 1018.7 |
| 20260831115743 | 17 | 67 | 0.0 | 0.0 | 0.00 | 0.00 | 0.00 | 1 | 1018.7 |
| 20260831115238 | 17 | 67 | 0.0 | 0.0 | 0.00 | 0.00 | 0.00 | 1 | 1018.6 |
| 20260831114732 | 17 | 67 | 0.0 | 0.0 | 0.00 | 0.00 | 0.00 | 1 | 1018.5 |
| 20260831114226 | 17 | 67 | 0.0 | 0.0 | 0.00 | 0.00 | 0.00 | 1 | 1018.5 |
| 20260831113944 | 17 | 67 | 0.0 | 0.0 | 0.00 | 0.00 | 0.00 | 1 | 1018.7 |
| 20260831113436 | 16 | 67 | 0.0 | 0.0 | 0.00 | 0.00 | 0.00 | 1 | 1018.6 |
| 20260831112709 | 16 | 67 | 0.0 | 0.0 | 0.00 | 0.00 | 0.00 | 1 | 1018.5 |
| 20260831112420 | 16 | 67 | 0.0 | 0.0 | 0.00 | 0.00 | 0.00 | 1 | 1018.5 |
| 20260831111656 | 16 | 67 | 0.0 | 0.0 | 0.00 | 0.00 | 0.00 | 1 | 1018.5 |
| 20260831111149 | 16 | 67 | 0.0 | 0.0 | 0.00 | 0.00 | 0.00 | 1 | 1018.5 |
| 20260831110643 | 16 | 67 | 0.0 | 0.0 | 0.00 | 0.00 | 0.00 | 1 | 1018.5 |
| 20260831110138 | 16 | 67 | 0.0 | 0.0 | 0.00 | 0.00 | 0.00 | 1 | 1018.4 |
| 20260831105631 | 16 | 67 | 0.0 | 0.0 | 0.00 | 0.00 | 0.00 | 1 | 1018.2 |
| 20260831105126 | 16 | 67 | 0.0 | 0.0 | 0.00 | 0.00 | 0.00 | 1 | 1018.2 |
| 20260831104620 | 16 | 67 | 0.0 | 0.0 | 0.00 | 0.00 | 0.00 | 1 | 1018.1 |
| 20260831104114 | 16 | 67 | 0.0 | 0.0 | 0.00 | 0.00 | 0.00 | 1 | 1017.9 |
| 20260831103607 | 16 | 67 | 0.0 | 0.0 | 0.00 | 0.00 | 0.00 | 1 | 1017.9 |
| 20260831103101 | 16 | 67 | 0.0 | 0.0 | 0.00 | 0.00 | 0.00 | 1 | 1017.9 |
| 20260831102822 | 16 | 67 | 0.0 | 0.0 | 0.00 | 0.00 | 0.00 | 1 | 1017.8 |
| 20260831102050 | 16 | 67 | 0.0 | 0.0 | 0.00 | 0.00 | 0.00 | 1 | 1017.9 |
| 20260831101544 | 16 | 67 | 0.0 | 0.0 | 0.00 | 0.00 | 0.00 | 1 | 1017.8 |
| 20260831101038 | 16 | 67 | 0.0 | 0.0 | 0.00 | 0.00 | 0.00 | 1 | 1017.8 |
| 20260831100754 | 16 | 67 | 0.0 | 0.0 | 0.00 | 0.00 | 0.00 | 1 | 1017.7 |
| 20260831100025 | 16 | 67 | 0.0 | 0.0 | 0.00 | 0.00 | 0.00 | 1 | 1017.7 |
| 20260831095520 | 16 | 67 | 0.0 | 0.0 | 0.00 | 0.00 | 0.00 | 1 | 1017.6 |
| 20260831095455 | 16 | 67 | 0.0 | 0.0 | 0.00 | 0.00 | 0.00 | 1 | 1017.7 |
| 20260831094507 | 16 | 67 | 0.0 | 0.0 | 0.00 | 0.00 | 0.00 | 1 | 1017.6 |
| 20260831094002 | 16 | 67 | 0.0 | 0.0 | 0.00 | 0.00 | 0.00 | 1 | 1017.6 |
| 20260831093718 | 16 | 67 | 0.0 | 0.0 | 0.00 | 0.00 | 0.00 | 1 | 1017.7 |
| 20260831093216 | 16 | 67 | 0.0 | 0.0 | 0.00 | 0.00 | 0.00 | 1 | 1017.6 |
| 20260831092444 | 16 | 67 | 0.0 | 0.0 | 0.00 | 0.00 | 0.00 | 1 | 1017.6 |
| 20260831091938 | 16 | 67 | 0.0 | 0.0 | 0.00 | 0.00 | 0.00 | 1 | 1017.7 |
| 20260831091432 | 16 | 67 | 0.0 | 0.0 | 0.00 | 0.00 | 0.00 | 1 | 1017.6 |
| 20260831090926 | 16 | 67 | 0.0 | 0.0 | 0.00 | 0.00 | 0.00 | 1 | 1017.6 |
| 20260831090419 | 16 | 67 | 0.0 | 0.0 | 0.00 | 0.00 | 0.00 | 1 | 1017.6 |
| 20260831085914 | 16 | 67 | 0.0 | 0.0 | 0.00 | 0.00 | 0.00 | 1 | 1017.6 |
| 20260831085407 | 16 | 67 | 0.0 | 0.0 | 0.00 | 0.00 | 0.00 | 1 | 1017.7 |
| 20260831085124 | 16 | 67 | 0.0 | 0.0 | 0.00 | 0.00 | 0.00 | 1 | 1017.6 |
| 20260831084356 | 16 | 67 | 0.0 | 0.0 | 0.00 | 0.00 | 0.00 | 1 | 1017.6 |
| 20260831083850 | 16 | 67 | 0.0 | 0.0 | 0.00 | 0.00 | 0.00 | 1 | 1017.5 |
| 20260831083343 | 16 | 67 | 0.0 | 0.0 | 0.00 | 0.00 | 0.00 | 1 | 1017.5 |
| 20260831082838 | 16 | 67 | 0.0 | 0.0 | 0.00 | 0.00 | 0.00 | 1 | 1017.4 |
| 20260831082601 | 16 | 67 | 0.0 | 0.0 | 0.00 | 0.00 | 0.00 | 1 | 1017.2 |
| 20260831081827 | 16 | 67 | 0.0 | 0.0 | 0.00 | 0.00 | 0.00 | 1 | 1017.2 |
| 20260831081319 | 16 | 67 | 0.0 | 0.0 | 0.00 | 0.00 | 0.00 | 1 | 1017.2 |
| 20260831081036 | 16 | 67 | 0.0 | 0.0 | 0.00 | 0.00 | 0.00 | 1 | 1017.3 |
| 20260831080308 | 16 | 67 | 0.0 | 0.0 | 0.00 | 0.00 | 0.00 | 1 | 1017.4 |
| 20260831080019 | 16 | 67 | 0.0 | 0.0 | 0.00 | 0.00 | 0.00 | 1 | 1017.3 |
| 20260831075256 | 16 | 67 | 0.0 | 0.0 | 0.00 | 0.00 | 0.00 | 1 | 1017.4 |
| 20260831075234 | 16 | 67 | 0.0 | 0.0 | 0.00 | 0.00 | 0.00 | 1 | 1017.5 |
| 20260831074244 | 17 | 67 | 0.0 | 0.0 | 0.00 | 0.00 | 0.00 | 1 | 1017.3 |
| 20260831073738 | 17 | 67 | 0.0 | 0.0 | 0.00 | 0.00 | 0.00 | 1 | 1017.3 |
| 20260831073455 | 17 | 67 | 0.0 | 0.0 | 0.00 | 0.00 | 0.00 | 1 | 1017.2 |
| 20260831072726 | 17 | 67 | 0.0 | 0.0 | 0.00 | 0.00 | 0.00 | 1 | 1017.1 |
| 20260831072219 | 17 | 67 | 0.0 | 0.0 | 0.00 | 0.00 | 0.00 | 1 | 1017.1 |
| 20260831071714 | 17 | 67 | 0.0 | 0.0 | 0.00 | 0.00 | 0.00 | 1 | 1017.2 |
| 20260831071208 | 17 | 67 | 0.0 | 0.0 | 0.00 | 0.00 | 0.00 | 1 | 1017.3 |
| 20260831070702 | 17 | 67 | 0.0 | 0.0 | 0.00 | 0.00 | 0.00 | 1 | 1017.3 |
| 20260831070156 | 17 | 67 | 0.0 | 0.0 | 0.00 | 0.00 | 0.00 | 1 | 1017.4 |
| 20260831065651 | 17 | 67 | 0.0 | 0.0 | 0.00 | 0.00 | 0.00 | 1 | 1017.3 |
| 20260831065144 | 17 | 67 | 0.0 | 0.0 | 0.00 | 0.00 | 0.00 | 1 | 1017.1 |
| 20260831064637 | 17 | 67 | 1.6 | 8.0 | 0.00 | 0.00 | 0.00 | 1 | 1017.1 |
| 20260831064132 | 17 | 67 | 1.6 | 8.0 | 0.00 | 0.00 | 0.00 | 1 | 1017.1 |
| 20260831063626 | 17 | 67 | 0.0 | 8.0 | 0.00 | 0.00 | 0.00 | 1 | 1016.9 |
| 20260831063126 | 17 | 65 | 0.0 | 0.0 | 0.00 | 0.00 | 0.00 | 1 | 1017.0 |
| 20260831062624 | 18 | 65 | 0.0 | 0.0 | 0.00 | 0.00 | 0.00 | 1 | 1016.9 |
| 20260831062353 | 18 | 66 | 0.0 | 0.0 | 0.00 | 0.00 | 0.00 | 1 | 1017.0 |
| 20260831061624 | 18 | 65 | 0.0 | 0.0 | 0.00 | 0.00 | 0.00 | 1 | 1017.0 |
| 20260831061123 | 18 | 65 | 0.0 | 0.0 | 0.00 | 0.00 | 0.00 | 1 | 1016.9 |
| 20260831060619 | 18 | 66 | 0.0 | 0.0 | 0.00 | 0.00 | 0.00 | 1 | 1016.9 |
| 20260831060120 | 18 | 66 | 0.0 | 0.0 | 0.00 | 0.00 | 0.00 | 1 | 1016.9 |
| 20260831055621 | 19 | 65 | 0.0 | 0.0 | 0.00 | 0.00 | 0.00 | 1 | 1016.9 |
| 20260831055120 | 19 | 66 | 0.0 | 0.0 | 0.00 | 0.00 | 0.00 | 1 | 1016.8 |
| 20260831054620 | 19 | 66 | 0.0 | 0.0 | 0.00 | 0.00 | 0.00 | 1 | 1016.7 |
| 20260831054120 | 20 | 65 | 0.0 | 0.0 | 0.00 | 0.00 | 0.00 | 1 | 1016.8 |
| 20260831053620 | 20 | 65 | 0.0 | 0.0 | 0.00 | 0.00 | 0.00 | 1 | 1016.8 |
| 20260831053118 | 20 | 65 | 0.0 | 0.0 | 0.00 | 0.00 | 0.00 | 1 | 1017.0 |
| 20260831052618 | 20 | 66 | 0.0 | 0.0 | 0.00 | 0.00 | 0.00 | 1 | 1017.0 |
| 20260831052118 | 20 | 65 | 0.0 | 0.0 | 0.00 | 0.00 | 0.00 | 1 | 1016.9 |
| 20260831051616 | 20 | 66 | 0.0 | 0.0 | 0.00 | 0.00 | 0.00 | 1 | 1017.0 |
| 20260831051338 | 20 | 66 | 0.0 | 0.0 | 0.00 | 0.00 | 0.00 | 1 | 1017.0 |
| 20260831051051 | 20 | 66 | 0.0 | 0.0 | 0.00 | 0.00 | 0.00 | 1 | 1016.9 |
| 20260831050116 | 20 | 66 | 0.0 | 0.0 | 0.00 | 0.00 | 0.00 | 1 | 1016.8 |
| 20260831045833 | 19 | 66 | 0.0 | 0.0 | 0.00 | 0.00 | 0.00 | 1 | 1016.8 |
| 20260831045338 | 19 | 66 | 1.6 | 8.0 | 0.00 | 0.00 | 0.00 | 1 | 1016.8 |
| 20260831044612 | 19 | 66 | 1.6 | 8.0 | 0.00 | 0.00 | 0.00 | 1 | 1016.8 |
| 20260831044112 | 19 | 267 | 0.0 | 0.0 | 0.00 | 0.00 | 0.00 | 1 | 1016.9 |
| 20260831043610 | 19 | 267 | 0.0 | 0.0 | 0.00 | 0.00 | 0.00 | 1 | 1017.1 |
| 20260831043110 | 19 | 267 | 0.0 | 0.0 | 0.00 | 0.00 | 0.00 | 1 | 1017.0 |
| 20260831042610 | 19 | 267 | 0.0 | 0.0 | 0.00 | 0.00 | 0.00 | 1 | 1017.0 |
| 20260831042108 | 19 | 267 | 0.0 | 0.0 | 0.00 | 0.00 | 0.00 | 1 | 1017.0 |
| 20260831041608 | 20 | 267 | 0.0 | 0.0 | 0.00 | 0.00 | 0.00 | 1 | 1016.9 |
| 20260831041108 | 20 | 267 | 0.0 | 0.0 | 0.00 | 0.00 | 0.00 | 1 | 1017.0 |
| 20260831040606 | 20 | 267 | 0.0 | 0.0 | 0.00 | 0.00 | 0.00 | 1 | 1017.0 |
| 20260831040105 | 20 | 267 | 0.0 | 0.0 | 0.00 | 0.00 | 0.00 | 1 | 1016.9 |
| 20260831035607 | 20 | 267 | 0.0 | 0.0 | 0.00 | 0.00 | 0.00 | 1 | 1016.8 |
| 20260831035106 | 20 | 267 | 0.0 | 0.0 | 0.00 | 0.00 | 0.00 | 1 | 1016.8 |
| 20260831034606 | 20 | 267 | 0.0 | 0.0 | 0.00 | 0.00 | 0.00 | 1 | 1016.7 |
| 20260831034059 | 20 | 267 | 0.0 | 0.0 | 0.00 | 0.00 | 0.00 | 1 | 1016.7 |
| 20260831033554 | 20 | 267 | 0.0 | 0.0 | 0.00 | 0.00 | 0.00 | 1 | 1016.7 |
| 20260831033053 | 21 | 267 | 0.0 | 0.0 | 0.00 | 0.00 | 0.00 | 1 | 1016.5 |
| 20260831032554 | 21 | 267 | 0.0 | 0.0 | 0.00 | 0.00 | 0.00 | 1 | 1016.6 |
| 20260831032054 | 21 | 267 | 0.0 | 0.0 | 0.00 | 0.00 | 0.00 | 1 | 1016.7 |
| 20260831031554 | 21 | 267 | 0.0 | 0.0 | 0.00 | 0.00 | 0.00 | 1 | 1016.8 |
| 20260831031054 | 21 | 267 | 0.0 | 0.0 | 0.00 | 0.00 | 0.00 | 1 | 1016.8 |
| 20260831030554 | 21 | 267 | 0.0 | 0.0 | 0.00 | 0.00 | 0.00 | 1 | 1016.8 |
| 20260831030052 | 21 | 267 | 0.0 | 0.0 | 0.00 | 0.00 | 0.00 | 1 | 1016.9 |
| 20260831025819 | 21 | 267 | 0.0 | 0.0 | 0.00 | 0.00 | 0.00 | 1 | 1016.9 |
| 20260831025048 | 21 | 267 | 0.0 | 0.0 | 0.00 | 0.00 | 0.00 | 1 | 1017.0 |
| 20260831024547 | 21 | 267 | 0.0 | 0.0 | 0.00 | 0.00 | 0.00 | 1 | 1017.0 |
| 20260831024048 | 21 | 267 | 0.0 | 0.0 | 0.00 | 0.00 | 0.00 | 1 | 1017.0 |
| 20260831023548 | 21 | 267 | 0.0 | 0.0 | 0.00 | 0.00 | 0.00 | 1 | 1017.0 |
| 20260831023044 | 21 | 267 | 0.0 | 0.0 | 0.00 | 0.00 | 0.00 | 1 | 1017.0 |
| 20260831022544 | 22 | 267 | 0.0 | 0.0 | 0.00 | 0.00 | 0.00 | 1 | 1016.9 |
| 20260831022043 | 22 | 267 | 0.0 | 0.0 | 0.00 | 0.00 | 0.00 | 1 | 1016.8 |
| 20260831021803 | 22 | 267 | 0.0 | 1.6 | 0.00 | 0.00 | 0.00 | 1 | 1016.8 |
| 20260831021044 | 22 | 267 | 1.6 | 3.2 | 0.00 | 0.00 | 0.00 | 1 | 1016.8 |
| 20260831020543 | 22 | 267 | 1.6 | 11.3 | 0.00 | 0.00 | 0.00 | 1 | 1016.7 |
| 20260831020044 | 22 | 267 | 3.2 | 11.3 | 0.00 | 0.00 | 0.00 | 1 | 1016.8 |
| 20260831015545 | 22 | 274 | 3.2 | 9.7 | 0.00 | 0.00 | 0.00 | 1 | 1016.8 |
| 20260831015044 | 22 | 269 | 1.6 | 8.0 | 0.00 | 0.00 | 0.00 | 1 | 1016.7 |
| 20260831014539 | 22 | 269 | 1.6 | 8.0 | 0.00 | 0.00 | 0.00 | 1 | 1016.6 |
| 20260831014257 | 22 | 269 | 3.2 | 8.0 | 0.00 | 0.00 | 0.00 | 1 | 1016.4 |
| 20260831013539 | 22 | 271 | 1.6 | 8.0 | 0.00 | 0.00 | 0.00 | 1 | 1016.5 |
| 20260831013039 | 22 | 268 | 1.6 | 6.4 | 0.00 | 0.00 | 0.00 | 1 | 1016.5 |
| 20260831012803 | 22 | 268 | 1.6 | 11.3 | 0.00 | 0.00 | 0.00 | 1 | 1016.4 |
| 20260831012040 | 22 | 267 | 1.6 | 11.3 | 0.00 | 0.00 | 0.00 | 1 | 1016.4 |
| 20260831011540 | 22 | 302 | 1.6 | 6.4 | 0.00 | 0.00 | 0.00 | 1 | 1016.3 |
| 20260831011040 | 21 | 316 | 1.6 | 6.4 | 0.00 | 0.00 | 0.00 | 1 | 1016.3 |
| 20260831010540 | 21 | 61 | 0.0 | 6.4 | 0.00 | 0.00 | 0.00 | 1 | 1016.2 |
| 20260831010039 | 21 | 61 | 0.0 | 1.6 | 0.00 | 0.00 | 0.00 | 1 | 1016.2 |
| 20260831005757 | 21 | 61 | 0.0 | 1.6 | 0.00 | 0.00 | 0.00 | 1 | 1016.2 |
| 20260831005040 | 21 | 61 | 0.0 | 1.6 | 0.00 | 0.00 | 0.00 | 1 | 1016.2 |
| 20260831004540 | 22 | 61 | 0.0 | 1.6 | 0.00 | 0.00 | 0.00 | 1 | 1016.1 |
| 20260831004039 | 22 | 61 | 0.0 | 0.0 | 0.00 | 0.00 | 0.00 | 1 | 1016.0 |
| 20260831003539 | 22 | 61 | 0.0 | 0.0 | 0.00 | 0.00 | 0.00 | 1 | 1015.9 |
| 20260831003040 | 22 | 61 | 0.0 | 6.4 | 0.00 | 0.00 | 0.00 | 1 | 1015.8 |
| 20260831002540 | 22 | 61 | 0.0 | 6.4 | 0.00 | 0.00 | 0.00 | 1 | 1015.7 |
| 20260831002040 | 22 | 61 | 1.6 | 11.3 | 0.00 | 0.00 | 0.00 | 1 | 1015.7 |
| 20260831001801 | 22 | 60 | 4.8 | 12.9 | 0.00 | 0.00 | 0.00 | 1 | 1015.6 |
| 20260831001305 | 22 | 61 | 3.2 | 12.9 | 0.00 | 0.00 | 0.00 | 1 | 1015.7 |
| 20260831000540 | 22 | 246 | 0.0 | 8.0 | 0.00 | 0.00 | 0.00 | 1 | 1015.6 |
| 20260831000038 | 22 | 246 | 0.0 | 3.2 | 0.00 | 0.00 | 0.00 | 1 | 1015.5 |
| 20260830235753 | 22 | 246 | 0.0 | 3.2 | 0.00 | 0.00 | 0.00 | 1 | 1015.4 |
| 20260830235032 | 22 | 246 | 0.0 | 1.6 | 0.00 | 0.00 | 0.00 | 1 | 1015.3 |
| 20260830234532 | 22 | 246 | 0.0 | 1.6 | 0.00 | 0.00 | 0.00 | 1 | 1015.2 |
| 20260830234031 | 22 | 246 | 0.0 | 0.0 | 0.00 | 0.00 | 0.00 | 1 | 1015.2 |
| 20260830233529 | 22 | 246 | 0.0 | 0.0 | 0.00 | 0.00 | 0.00 | 1 | 1015.2 |
| 20260830233253 | 22 | 246 | 0.0 | 0.0 | 0.00 | 0.00 | 0.00 | 1 | 1015.2 |
| 20260830232527 | 22 | 246 | 0.0 | 0.0 | 0.00 | 0.00 | 0.00 | 1 | 1015.2 |
| 20260830232027 | 22 | 246 | 0.0 | 0.0 | 0.00 | 0.00 | 0.00 | 1 | 1015.2 |
| 20260830231523 | 22 | 246 | 0.0 | 0.0 | 0.00 | 0.00 | 0.00 | 1 | 1015.1 |
| 20260830231021 | 22 | 246 | 0.0 | 0.0 | 0.00 | 0.00 | 0.00 | 1 | 1015.1 |
| 20260830230521 | 22 | 246 | 0.0 | 0.0 | 0.00 | 0.00 | 0.00 | 1 | 1015.0 |
| 20260830230022 | 22 | 246 | 0.0 | 0.0 | 0.00 | 0.00 | 0.00 | 1 | 1015.1 |
| 20260830225743 | 22 | 246 | 0.0 | 0.0 | 0.00 | 0.00 | 0.00 | 1 | 1015.1 |
| 20260830225019 | 23 | 246 | 0.0 | 0.0 | 0.00 | 0.00 | 0.00 | 1 | 1015.3 |
| 20260830224741 | 23 | 246 | 0.0 | 0.0 | 0.00 | 0.00 | 0.00 | 1 | 1015.4 |
| 20260830224016 | 23 | 246 | 0.0 | 0.0 | 0.00 | 0.00 | 0.00 | 1 | 1015.3 |
| 20260830223516 | 23 | 246 | 0.0 | 1.6 | 0.00 | 0.00 | 0.00 | 1 | 1015.3 |
| 20260830223014 | 23 | 246 | 0.0 | 1.6 | 0.00 | 0.00 | 0.00 | 1 | 1015.2 |
| 20260830222513 | 23 | 246 | 0.0 | 6.4 | 0.00 | 0.00 | 0.00 | 1 | 1015.3 |
| 20260830222237 | 23 | 246 | 0.0 | 6.4 | 0.00 | 0.00 | 0.00 | 1 | 1015.2 |
| 20260830221513 | 23 | 246 | 0.0 | 8.0 | 0.00 | 0.00 | 0.00 | 1 | 1015.4 |
| 20260830221013 | 23 | 246 | 0.0 | 8.0 | 0.00 | 0.00 | 0.00 | 1 | 1015.4 |
| 20260830220513 | 23 | 246 | 0.0 | 0.0 | 0.00 | 0.00 | 0.00 | 1 | 1015.3 |
| 20260830220013 | 23 | 246 | 0.0 | 0.0 | 0.00 | 0.00 | 0.00 | 1 | 1015.1 |
| 20260830215512 | 23 | 246 | 0.0 | 0.0 | 0.00 | 0.00 | 0.00 | 1 | 1015.0 |
| 20260830215234 | 23 | 249 | 1.6 | 11.3 | 0.00 | 0.00 | 0.00 | 1 | 1015.0 |
| 20260830214512 | 23 | 250 | 3.2 | 11.3 | 0.00 | 0.00 | 0.00 | 1 | 1015.0 |
| 20260830214321 | 23 | 252 | 3.2 | 11.3 | 0.00 | 0.00 | 0.00 | 1 | 1014.9 |
| 20260830214216 | 23 | 255 | 3.2 | 9.7 | 0.00 | 0.00 | 0.00 | 1 | 1014.9 |
| 20260830213003 | 23 | 257 | 3.2 | 12.9 | 0.00 | 0.00 | 0.00 | 1 | 1015.0 |
| 20260830212457 | 23 | 263 | 3.2 | 12.9 | 0.00 | 0.00 | 0.00 | 1 | 1014.9 |
| 20260830211951 | 24 | 259 | 3.2 | 8.0 | 0.00 | 0.00 | 0.00 | 1 | 1014.9 |
| 20260830211445 | 24 | 259 | 3.2 | 12.9 | 0.00 | 0.00 | 0.00 | 1 | 1015.1 |
| 20260830210939 | 24 | 261 | 3.2 | 12.9 | 0.00 | 0.00 | 0.00 | 1 | 1015.0 |
| 20260830210433 | 24 | 206 | 3.2 | 11.3 | 0.00 | 0.00 | 0.00 | 1 | 1015.0 |
| 20260830210155 | 24 | 250 | 3.2 | 11.3 | 0.00 | 0.00 | 0.00 | 1 | 1015.1 |
| 20260830205421 | 24 | 242 | 3.2 | 11.3 | 0.00 | 0.00 | 0.00 | 1 | 1015.1 |
| 20260830204915 | 24 | 241 | 4.8 | 11.3 | 0.00 | 0.00 | 0.00 | 1 | 1015.1 |
| 20260830204408 | 24 | 257 | 3.2 | 12.9 | 0.00 | 0.00 | 0.00 | 1 | 1015.2 |
| 20260830204125 | 24 | 258 | 3.2 | 12.9 | 0.00 | 0.00 | 0.00 | 1 | 1015.2 |
| 20260830203357 | 24 | 252 | 3.2 | 11.3 | 0.00 | 0.00 | 0.00 | 1 | 1015.1 |
| 20260830203117 | 24 | 253 | 1.6 | 11.3 | 0.00 | 0.00 | 0.00 | 1 | 1015.2 |
| 20260830202345 | 24 | 250 | 1.6 | 9.7 | 0.00 | 0.00 | 0.00 | 1 | 1015.2 |
| 20260830201839 | 24 | 250 | 3.2 | 9.7 | 0.00 | 0.00 | 0.00 | 1 | 1015.2 |
| 20260830201332 | 24 | 249 | 3.2 | 12.9 | 0.00 | 0.00 | 0.00 | 1 | 1015.3 |
| 20260830200826 | 24 | 249 | 1.6 | 12.9 | 0.00 | 0.00 | 0.00 | 1 | 1015.3 |
| 20260830200321 | 24 | 228 | 0.0 | 11.3 | 0.00 | 0.00 | 0.00 | 1 | 1015.4 |
| 20260830200036 | 24 | 231 | 1.6 | 11.3 | 0.00 | 0.00 | 0.00 | 1 | 1015.4 |
| 20260830195310 | 25 | 231 | 3.2 | 12.9 | 0.00 | 0.00 | 0.00 | 1 | 1015.4 |
| 20260830194802 | 25 | 236 | 3.2 | 12.9 | 0.00 | 0.00 | 0.00 | 1 | 1015.6 |
| 20260830194257 | 25 | 240 | 1.6 | 11.3 | 0.00 | 0.00 | 0.00 | 1 | 1015.5 |
| 20260830193751 | 25 | 246 | 1.6 | 8.0 | 0.00 | 0.00 | 0.00 | 1 | 1015.7 |
| 20260830193245 | 25 | 245 | 4.8 | 12.9 | 0.00 | 0.00 | 0.00 | 1 | 1015.7 |
| 20260830192739 | 25 | 253 | 4.8 | 12.9 | 0.00 | 0.00 | 0.00 | 1 | 1015.6 |
| 20260830192233 | 25 | 256 | 6.4 | 14.5 | 0.00 | 0.00 | 0.00 | 1 | 1015.5 |
| 20260830192203 | 25 | 237 | 6.4 | 14.5 | 0.00 | 0.00 | 0.00 | 1 | 1015.7 |
| 20260830191220 | 25 | 202 | 4.8 | 12.9 | 0.00 | 0.00 | 0.00 | 1 | 1015.8 |
| 20260830190714 | 25 | 275 | 4.8 | 14.5 | 0.00 | 0.00 | 0.00 | 1 | 1015.8 |
| 20260830190208 | 25 | 183 | 4.8 | 14.5 | 0.00 | 0.00 | 0.00 | 1 | 1015.8 |
| 20260830185704 | 25 | 269 | 3.2 | 11.3 | 0.00 | 0.00 | 0.00 | 1 | 1015.9 |
| 20260830185157 | 25 | 228 | 4.8 | 12.9 | 0.00 | 0.00 | 0.00 | 1 | 1016.0 |
| 20260830184651 | 25 | 248 | 3.2 | 12.9 | 0.00 | 0.00 | 0.00 | 1 | 1016.0 |
| 20260830184145 | 25 | 252 | 1.6 | 9.7 | 0.00 | 0.00 | 0.00 | 1 | 1016.2 |
| 20260830183639 | 25 | 248 | 3.2 | 12.9 | 0.00 | 0.00 | 0.00 | 1 | 1016.4 |
| 20260830183355 | 25 | 182 | 4.8 | 12.9 | 0.00 | 0.00 | 0.00 | 1 | 1016.2 |
| 20260830182626 | 25 | 257 | 3.2 | 11.3 | 0.00 | 0.00 | 0.00 | 1 | 1016.2 |
| 20260830182121 | 25 | 161 | 3.2 | 11.3 | 0.00 | 0.00 | 0.00 | 1 | 1016.4 |
| 20260830181615 | 25 | 260 | 1.6 | 8.0 | 0.00 | 0.00 | 0.00 | 1 | 1016.6 |
| 20260830181108 | 25 | 261 | 1.6 | 9.7 | 0.00 | 0.00 | 0.00 | 1 | 1016.6 |
| 20260830180603 | 25 | 261 | 1.6 | 9.7 | 0.00 | 0.00 | 0.00 | 1 | 1016.6 |
| 20260830180057 | 25 | 257 | 1.6 | 11.3 | 0.00 | 0.00 | 0.00 | 1 | 1016.5 |
| 20260830175551 | 25 | 258 | 3.2 | 11.3 | 0.00 | 0.00 | 0.00 | 1 | 1016.6 |
| 20260830175045 | 24 | 254 | 3.2 | 9.7 | 0.00 | 0.00 | 0.00 | 1 | 1016.7 |
| 20260830174540 | 24 | 254 | 1.6 | 9.7 | 0.00 | 0.00 | 0.00 | 1 | 1016.8 |
| 20260830174033 | 24 | 255 | 1.6 | 9.7 | 0.00 | 0.00 | 0.00 | 1 | 1016.9 |
| 20260830173751 | 25 | 255 | 3.2 | 9.7 | 0.00 | 0.00 | 0.00 | 1 | 1016.9 |
| 20260830173021 | 25 | 257 | 4.8 | 12.9 | 0.00 | 0.00 | 0.00 | 1 | 1016.8 |
| 20260830172515 | 25 | 257 | 4.8 | 12.9 | 0.00 | 0.00 | 0.00 | 1 | 1016.9 |
| 20260830172008 | 25 | 250 | 3.2 | 9.7 | 0.00 | 0.00 | 0.00 | 1 | 1016.8 |
| 20260830171503 | 24 | 282 | 3.2 | 11.3 | 0.00 | 0.00 | 0.00 | 1 | 1016.9 |
| 20260830170957 | 24 | 286 | 4.8 | 14.5 | 0.00 | 0.00 | 0.00 | 1 | 1016.9 |
| 20260830170451 | 24 | 246 | 3.2 | 14.5 | 0.00 | 0.00 | 0.00 | 1 | 1017.0 |
| 20260830170205 | 24 | 259 | 0.0 | 9.7 | 0.00 | 0.00 | 0.00 | 1 | 1017.0 |
| 20260830165439 | 24 | 258 | 1.6 | 11.3 | 0.00 | 0.00 | 0.00 | 1 | 1017.1 |
| 20260830165159 | 24 | 259 | 4.8 | 11.3 | 0.00 | 0.00 | 0.00 | 1 | 1017.1 |
| 20260830164432 | 24 | 261 | 6.4 | 12.9 | 0.00 | 0.00 | 0.00 | 3 | 1017.1 |
| 20260830163931 | 25 | 250 | 8.0 | 16.1 | 0.00 | 0.00 | 0.00 | 2 | 1017.1 |
| 20260830163431 | 25 | 288 | 8.0 | 16.1 | 0.00 | 0.00 | 0.00 | 1 | 1017.3 |
| 20260830162931 | 25 | 245 | 6.4 | 14.5 | 0.00 | 0.00 | 0.00 | 1 | 1017.4 |
| 20260830162431 | 24 | 259 | 4.8 | 12.9 | 0.00 | 0.00 | 0.00 | 1 | 1017.5 |
| 20260830161931 | 23 | 250 | 6.4 | 12.9 | 0.00 | 0.00 | 0.00 | 1 | 1017.7 |
| 20260830161429 | 23 | 248 | 4.8 | 14.5 | 0.00 | 0.00 | 0.00 | 1 | 1017.7 |
| 20260830160929 | 23 | 260 | 1.6 | 14.5 | 0.00 | 0.00 | 0.00 | 1 | 1017.7 |
| 20260830160429 | 23 | 249 | 1.6 | 11.3 | 0.00 | 0.00 | 0.00 | 1 | 1017.8 |
| 20260830155926 | 23 | 247 | 6.4 | 12.9 | 0.00 | 0.00 | 0.00 | 1 | 1017.9 |
| 20260830155427 | 23 | 248 | 6.4 | 12.9 | 0.00 | 0.00 | 0.00 | 1 | 1017.9 |
| 20260830154928 | 23 | 247 | 4.8 | 12.9 | 0.00 | 0.00 | 0.00 | 1 | 1018.0 |
| 20260830154427 | 23 | 244 | 4.8 | 14.5 | 0.00 | 0.00 | 0.00 | 2 | 1018.1 |
| 20260830153927 | 23 | 283 | 6.4 | 14.5 | 0.00 | 0.00 | 0.00 | 1 | 1018.2 |